Volver al catálogo

STARLINK-34787

ActivoComunicacionesVLEO
NORAD 65204·PAYLOAD·🇺🇸 United States

Lanzado Aug 14, 2025 desde Cape Canaveral Space Force Station

Loading…

Próximos Pases (próximas 24 horas)

TLE

ActualizadoSource: CelesTrak SupGP

Época: Sep 14, 2026, 22:27 UTC

1 65204C 25176G   26257.93590278 -.00006264  00000+0 -18511-3 0  2578
2 65204  53.1601 349.4043 0001197  81.9347 343.3337 15.34386757    18

Sigue STARLINK-34787 en tiempo real con AllMySat

Download on the App Store